Regional Weather Roundup
Issued by NWS

Home | Current Version | Previous Version | Graphics & Text | Print | Product List | Glossary On
Versions: 1 2 3 4 5 6 7 8 9 10 11 12 13 14 15 16 17 18 19 20 21 22 23 24 25 26 27 28 29 30 31 32 33 34 35 36 37 38 39 40 41 42 43 44 45 46 47 48 49 50
000
ASUS43 KLSX 250759
RWRMO

WEATHER SUMMARY FOR MISSOURI
NATIONAL WEATHER SERVICE SPRINGFIELD MO
300 AM CDT SAT APR 25 2015

NOTE: "FAIR" INDICATES FEW OR NO CLOUDS BELOW 12,000 FEET WITH NO
       SIGNIFICANT WEATHER AND/OR OBSTRUCTIONS TO VISIBILITY.
       CURRENT SKY AND/OR WEATHER CONDITIONS ARE NOT AVAILABLE FOR
       CHILLICOTHE AND FARMINGTON.

MOZ001>031-035>038-043-044-053-054-250900-
...NORTHERN AND WESTERN MISSOURI...

CITY           SKY/WX    TMP DP  RH WIND       PRES   REMARKS
KANSAS CTY INT TSTM      58  55  90 SE15      29.46F
KANSAS C DTWN  LGT RAIN  61  54  77 SE10G24   29.47S
LEE`S SUMMIT   MOCLDY    57  53  86 SE9       29.48F
ST JOSEPH      CLOUDY    58  55  90 SE5       29.46F
CHILLICOTHE      N/A     55  52  89 SE7       29.53F
KIRKSVILLE     CLOUDY    53  50  89 E12       29.58F

$$
MOZ066>068-077>081-088>096-101>105-250900-
...SOUTHWEST MISSOURI...

CITY           SKY/WX    TMP DP  RH WIND       PRES   REMARKS
SPRINGFIELD    CLOUDY    59  57  93 S18       29.53F
JOPLIN         CLEAR     61  57  87 S17       29.50F

$$
MOZ032>034-039>042-045>050-055>058-069>072-250900-
...CENTRAL MISSOURI...

CITY           SKY/WX    TMP DP  RH WIND       PRES   REMARKS
COLUMBIA       LGT RAIN  55  51  86 SE10      29.57F
JEFFERSON CITY LGT RAIN  56  52  86 E12       29.58F
ROLLA          CLOUDY    54  52  93 SE13      29.59F
SEDALIA        CLOUDY    57  53  86 SE13      29.54F
OSAGE BEACH    CLOUDY    57  52  82 SE6       29.57F

$$
MOZ051-052-059>065-250900-
...EAST CENTRAL MISSOURI...

CITY           SKY/WX    TMP DP  RH WIND       PRES   REMARKS
ST LOUIS INTL  CLOUDY    56  47  71 SE8       29.66F
SPIRIT OF STL  CLOUDY    53  47  79 E5        29.64F
ST CHARLES     CLOUDY    54  46  74 SE8       29.66F

$$
MOZ072>076-082>087-097>100-106>115-250900-
...SOUTH CENTRAL AND SOUTHEAST MISSOURI...

CITY           SKY/WX    TMP DP  RH WIND       PRES   REMARKS
CAPE GIRARDEAU CLOUDY    56  54  93 E5        29.68F
FARMINGTON     CLOUDY    54  52  94 SE8       29.70F VSB 1
POPLAR BLUFF   CLOUDY    57  54  89 E6        29.64F
WEST PLAINS    FOG       53  52  96 SE6       29.63F VSB 1/4

$$



USA.gov is the U.S. government's official web portal to all federal, state and local government web resources and services.